map of NZWD home
NZWD - Airport
Location
City:  McMurdo Station, Ross Island, Antarctica
Name:Williams Field
ICAO:NZWD

Details
Type:Airport (Aerodrome, Airfield)
Latitude:7752'02"S (-77.867357)
Longitude:16703'24"E (167.056572)
Datum:WGS 1984
Elevation:68 ft (21 m)
Variation:141.15E (WMM2015 magnetic declination)
-0.20 annual change
Runways:2
Longest:10000 × 220 ft (3048 × 67 m)

Time
Time Zone:UTC+12 (DST+13)
Local Time:

Weather
METAR:NZWD 201755Z 08007KT 9999 FEW010 FEW040 BKN060 BKN080 BKN180 M17/M22 A2879 RMK SCSL GRID N SLP748 SN DSNT GRID SW FATA MORGANA GRID W-N-E GRID25007KT SDF/HDG HDP GRID SW

Related Locations
Nearby:
Farthest:BGNO: 12166 mi / 19580 km
Nord [Station Nord], NEG, GL

Find:

   beyond  
but within

Other Information
Maps:
NOTAMs:
Links:
Sources:

  

Sectional Chart

Flight Planning
at skyvector.com

Satellite Image

Google Maps Satellite view

 

Copyright © 2004-2018 Karl L. Swartz. All rights reserved.
The Great Circle Mapper name and logo are trademarks of the Great Circle Mapper.
All other trademarks mentioned herein belong to their respective owners.
Please see credits for attibutions and further copyright information.

  Follow gcmap on Facebook Follow gcmap on Twitter Follow gcmap on Google+ GCmap on LinkedIn

hCard Microformat

Geo Microformat